Weather History for Atka, AK

Change the Weather History Date:

Friday, August 16, 2013

  Actual Average (PADK) Record (PADK)
Temperature  
Mean Temperature 50 °F -  
Max Temperature 53 °F 54 °F 64 °F (1958)
Min Temperature 48 °F 45 °F 34 °F (1992)
Degree Days  
Heating Degree Days 14    
Moisture  
Dew Point 46 °F    
Average Humidity 87    
Maximum Humidity 100    
Minimum Humidity 72    
Precipitation  
Precipitation 0.00 in - - ()
Sea Level Pressure  
Sea Level Pressure 29.90 in    
Wind  
Wind Speed 19 mph (WNW)    
Max Wind Speed 26 mph    
Max Gust Speed 32 mph    
Visibility 7 miles    
Events      
Averages and records for this station are not official NWS values.
T = Trace of Precipitation, MM = Missing Value Source: NWS Daily Summary

Daily Weather History Graph

Daily Weather History Graph

Search for Another Location

Airport:

Trip Planner

Search our weather history database for the weather conditions in past years. The results will help you decide how hot, cold, wet, or windy it might be!

Date:

Astronomy

Aug. 16, 2013 Rise Set
Actual Time 7:22 AM HADT 9:58 PM HADT
Civil Twilight 6:44 AM HADT 10:35 PM HADT
Nautical Twilight 5:55 AM HADT 11:24 PM HADT
Astronomical Twilight 4:56 AM HADT 12:22 AM HADT
Moon 6:45 PM HADT (8/16) 2:23 AM HADT (8/16)
Length of Visible Light 15h 51m
Length of Day
14h 35m
Waxing Gibbous, 77% of the Moon is Illuminated
Aug 16
Waxing Gibbous
Aug 20
Full
Aug 28
Last Quarter
Sep 5
New
Sep 12
First Quarter

Hourly Weather History & Observations

Time (HADT) Temp. Dew Point Humidity Pressure Visibility Wind Dir Wind Speed Gust Speed Precip Events Conditions
12:16 AM 48.2 °F 44.6 °F 87% 29.72 in 8.0 mi WNW 19.6 mph 24.2 mph N/A   Overcast
12:36 AM 48.2 °F 44.6 °F 87% 29.73 in 10.0 mi WNW 13.8 mph 28.8 mph N/A   Overcast
12:56 AM 48.2 °F 44.6 °F 87% 29.73 in 10.0 mi West 18.4 mph 24.2 mph N/A   Overcast
1:16 AM 48.2 °F 46.4 °F 93% 29.73 in 8.0 mi West 19.6 mph 24.2 mph N/A   Overcast
1:36 AM 48.2 °F 46.4 °F 93% 29.74 in 3.0 mi West 20.7 mph 27.6 mph N/A   Overcast
1:56 AM 48.2 °F 46.4 °F 93% 29.74 in 6.0 mi West 21.9 mph 27.6 mph N/A   Mostly Cloudy
2:16 AM 48.2 °F 46.4 °F 93% 29.75 in 7.0 mi West 21.9 mph - N/A   Overcast
2:36 AM 48.2 °F 46.4 °F 93% 29.75 in 7.0 mi West 21.9 mph 25.3 mph N/A   Overcast
2:56 AM 48.2 °F 46.4 °F 93% 29.75 in 7.0 mi West 19.6 mph 26.5 mph N/A   Overcast
3:16 AM 48.2 °F 46.4 °F 93% 29.76 in 4.0 mi West 18.4 mph 25.3 mph N/A   Overcast
3:36 AM 48.2 °F 46.4 °F 93% 29.76 in 4.0 mi WNW 24.2 mph 31.1 mph N/A   Mostly Cloudy
3:56 AM 48.2 °F 44.6 °F 87% 29.77 in 2.5 mi WNW 20.7 mph 28.8 mph N/A   Overcast
4:16 AM 48.2 °F 44.6 °F 87% 29.77 in 8.0 mi WNW 21.9 mph 27.6 mph N/A   Overcast
4:36 AM 48.2 °F 44.6 °F 87% 29.77 in 10.0 mi WNW 17.3 mph 27.6 mph N/A   Overcast
4:56 AM 48.2 °F 44.6 °F 87% 29.78 in 10.0 mi WNW 16.1 mph 25.3 mph N/A   Overcast
5:16 AM 48.2 °F 44.6 °F 87% 29.78 in 10.0 mi WNW 20.7 mph 27.6 mph N/A   Overcast
5:36 AM 48.2 °F 44.6 °F 87% 29.79 in 10.0 mi WNW 20.7 mph 26.5 mph N/A   Overcast
5:56 AM 48.2 °F 44.6 °F 87% 29.79 in 3.0 mi WNW 21.9 mph 27.6 mph N/A   Overcast
6:16 AM 48.2 °F 46.4 °F 93% 29.80 in 7.0 mi WNW 24.2 mph 32.2 mph N/A   Mostly Cloudy
6:36 AM 48.2 °F 46.4 °F 93% 29.80 in 4.0 mi WNW 20.7 mph 28.8 mph N/A   Mostly Cloudy
6:56 AM 48.2 °F 46.4 °F 93% 29.81 in 10.0 mi WNW 21.9 mph 29.9 mph N/A   Overcast
7:16 AM 48.2 °F 46.4 °F 93% 29.81 in 10.0 mi WNW 23.0 mph 31.1 mph N/A   Overcast
7:36 AM 48.2 °F 44.6 °F 87% 29.82 in 10.0 mi WNW 24.2 mph 28.8 mph N/A   Overcast
7:56 AM 48.2 °F 44.6 °F 87% 29.83 in 9.0 mi WNW 20.7 mph 27.6 mph N/A   Overcast
8:16 AM 48.2 °F 44.6 °F 87% 29.83 in 10.0 mi WNW 20.7 mph 29.9 mph N/A   Mostly Cloudy
8:36 AM 48.2 °F 44.6 °F 87% 29.84 in 10.0 mi WNW 18.4 mph 31.1 mph N/A   Mostly Cloudy
8:56 AM 50.0 °F 44.6 °F 82% 29.84 in 10.0 mi WNW 26.5 mph 31.1 mph N/A   Overcast
9:16 AM 48.2 °F 44.6 °F 87% 29.85 in 9.0 mi WNW 19.6 mph 29.9 mph N/A   Overcast
9:36 AM 48.2 °F 44.6 °F 87% 29.85 in 9.0 mi WNW 21.9 mph 32.2 mph N/A   Overcast
9:56 AM 50.0 °F 44.6 °F 82% 29.86 in 9.0 mi WNW 21.9 mph 32.2 mph N/A   Overcast
10:16 AM 50.0 °F 44.6 °F 82% 29.87 in 10.0 mi WNW 19.6 mph 29.9 mph N/A   Overcast
10:36 AM 50.0 °F 44.6 °F 82% 29.87 in 10.0 mi WNW 19.6 mph 26.5 mph N/A   Overcast
10:56 AM 50.0 °F 46.4 °F 87% 29.88 in 1.5 mi WNW 20.7 mph 31.1 mph N/A   Overcast
11:16 AM 48.2 °F 46.4 °F 93% 29.89 in 3.0 mi NW 20.7 mph 28.8 mph N/A   Overcast
11:36 AM 50.0 °F 46.4 °F 87% 29.90 in 8.0 mi WNW 20.7 mph 26.5 mph N/A   Overcast
11:56 AM 50.0 °F 46.4 °F 87% 29.92 in 6.0 mi NW 19.6 mph 24.2 mph N/A   Overcast
12:16 PM 50.0 °F 46.4 °F 87% 29.92 in 1.5 mi WNW 19.6 mph 29.9 mph N/A   Overcast
12:36 PM 48.2 °F 46.4 °F 93% 29.93 in 2.0 mi WNW 18.4 mph 25.3 mph N/A   Overcast
12:56 PM 48.2 °F 48.2 °F 100% 29.94 in 8.0 mi WNW 17.3 mph 26.5 mph N/A   Overcast
1:16 PM 48.2 °F 46.4 °F 93% 29.94 in 6.0 mi WNW 20.7 mph 27.6 mph N/A   Overcast
1:36 PM 50.0 °F 48.2 °F 94% 29.94 in 5.0 mi WNW 19.6 mph 27.6 mph N/A   Overcast
1:56 PM 51.8 °F 48.2 °F 88% 29.94 in 5.0 mi WNW 18.4 mph 25.3 mph N/A   Overcast
2:16 PM 51.8 °F 48.2 °F 88% 29.95 in 5.0 mi NW 17.3 mph 25.3 mph N/A   Overcast
2:36 PM 51.8 °F 48.2 °F 88% 29.95 in 6.0 mi WNW 17.3 mph 23.0 mph N/A   Overcast
2:56 PM 51.8 °F 48.2 °F 88% 29.96 in 5.0 mi WNW 16.1 mph 23.0 mph N/A   Overcast
3:16 PM 53.6 °F 48.2 °F 82% 29.96 in 7.0 mi WNW 13.8 mph 20.7 mph N/A   Overcast
3:36 PM 53.6 °F 48.2 °F 82% 29.96 in 8.0 mi NW 17.3 mph 24.2 mph N/A   Overcast
3:56 PM 53.6 °F 48.2 °F 82% 29.96 in 9.0 mi NW 18.4 mph - N/A   Overcast
4:16 PM 53.6 °F 48.2 °F 82% 29.97 in 7.0 mi NW 16.1 mph 21.9 mph N/A   Overcast
4:36 PM 53.6 °F 46.4 °F 77% 29.97 in 8.0 mi NW 16.1 mph 23.0 mph N/A   Overcast
4:56 PM 53.6 °F 46.4 °F 77% 29.98 in 9.0 mi NW 15.0 mph 20.7 mph N/A   Overcast
5:16 PM 53.6 °F 46.4 °F 77% 29.99 in 8.0 mi NW 16.1 mph 21.9 mph N/A   Overcast
5:36 PM 53.6 °F 46.4 °F 77% 29.99 in 10.0 mi NW 17.3 mph 21.9 mph N/A   Overcast
5:56 PM 53.6 °F 44.6 °F 72% 30.00 in 10.0 mi NW 13.8 mph 21.9 mph N/A   Mostly Cloudy
6:16 PM 51.8 °F 44.6 °F 76% 30.01 in 10.0 mi WNW 16.1 mph - N/A   Mostly Cloudy
6:36 PM 51.8 °F 46.4 °F 82% 30.01 in 9.0 mi WNW 17.3 mph - N/A   Mostly Cloudy
6:56 PM 51.8 °F 46.4 °F 82% 30.02 in 9.0 mi WNW 15.0 mph 19.6 mph N/A   Overcast
7:16 PM 51.8 °F 44.6 °F 76% 30.02 in 9.0 mi WNW 17.3 mph 23.0 mph N/A   Overcast
7:36 PM 48.2 °F 44.6 °F 87% 30.03 in 7.0 mi WNW 17.3 mph 25.3 mph N/A   Overcast
7:56 PM 48.2 °F 44.6 °F 87% 30.03 in 6.0 mi WNW 19.6 mph 27.6 mph N/A   Overcast
8:16 PM 48.2 °F 44.6 °F 87% 30.04 in 5.0 mi WNW 19.6 mph 25.3 mph N/A   Overcast
8:36 PM 48.2 °F 44.6 °F 87% 30.04 in 4.0 mi WNW 20.7 mph 26.5 mph N/A   Overcast
8:56 PM 48.2 °F 44.6 °F 87% 30.05 in 5.0 mi WNW 17.3 mph 26.5 mph N/A   Overcast
9:16 PM 48.2 °F 44.6 °F 87% 30.05 in 4.0 mi WNW 16.1 mph 23.0 mph N/A   Overcast
9:36 PM 48.2 °F 44.6 °F 87% 30.06 in 2.5 mi WNW 18.4 mph 23.0 mph N/A   Overcast
9:56 PM 48.2 °F 44.6 °F 87% 30.06 in 5.0 mi WNW 17.3 mph - N/A   Overcast
10:16 PM 48.2 °F 44.6 °F 87% 30.07 in 7.0 mi WNW 13.8 mph 23.0 mph N/A   Overcast
10:36 PM 48.2 °F 44.6 °F 87% 30.08 in 4.0 mi WNW 18.4 mph - N/A   Overcast
10:56 PM 48.2 °F 44.6 °F 87% 30.09 in 5.0 mi WNW 19.6 mph 24.2 mph N/A   Overcast
11:16 PM 48.2 °F 44.6 °F 87% 30.09 in 8.0 mi WNW 17.3 mph 26.5 mph N/A   Overcast
11:36 PM 48.2 °F 42.8 °F 82% 30.10 in 10.0 mi NW 16.1 mph 20.7 mph N/A   Overcast
11:56 PM 48.2 °F 42.8 °F 82% 30.10 in 10.0 mi NW 15.0 mph 19.6 mph N/A   Overcast